THOR ABLESTAR R/B, 1428

Orbit data source: Space-Track

THOR ABLESTAR R/B, 1428 is space debris in LEO originally from a launch on Thu, 24 Jun 1965 UTC launched from the Air Force Western Test Range (AFWTR). Debris objects in space refer to the collection of defunct objects orbiting the Earth. Examples of debris include non-operational satellites, rocket bodies, and fragments generated from explosions, collisions, or faulty payload assembly.

Loading next visibility...
Identifier
1428, 1965-048B
Orbit
LEO
Country
Flag of USUS
Related business
Manufacturer
Aerojet
Mission
Spacecraft
Bus & Motor
ABLESTAR, Unknown motor
Mass
~600 kg wet, 600 kg dry
Launch date (UTC)
1965-06-24 (61 years ago)
Launch vehicle
Unknown
Launch site
Air Force Western Test Range (AFWTR)
Object type
Payload
Rocket body
Debris
Shape & HBR
Unknown
Radar Cross Section
Large (>1 m²)

Expand to show TLE details & history
Last TLE update: 2 days ago

TLE from 2 days ago
0 THOR ABLESTAR R/B
1 01428U 65048B   26134.42830112  .00000043  00000-0  50291-4 0  9993
2 01428  89.8735 285.4317 0054903 278.2887 134.9160 13.52685822  4066
Epoch: 2026-05-14T10:16Z
TLE epoch observation values (Epoch: 2026-05-14T10:16:45.216Z)
Latitude
53.74169°
Longitude
-100.75922°
Altitude
1,100.246 km
Speed
7.293 km/s
True Right ascension
19h 02m 24s
True Declination
53° 35' 06"
Sunlit
Object was in daylight at epoch
Visualization orbit readout
Latitude
Unknown
Longitude
Unknown
Altitude
Unknown
Speed
Unknown
Apparent Right ascension
Unknown
Apparent Declination
Unknown
Sunlit
N/A
Visualization observer readout
Local Sidereal Time
19:56:35
Azimuth
Unknown
Elevation
Unknown
Doppler factor
Unknown
Orbital elements
Apogee altitude
1,100.273 km
Perigee altitude
1,018.604 km
Semi-major axis
7,437.576 km
Eccentricity
0.00549
Inclination
89.8735°
RAAN
285.4317°
Arg. of periapsis
278.2887°
True anomaly
135.35937°
Mean anomaly
134.916°
Eccentric anomaly
135.1379°
Mean motion
3.38373 °/min
Orbital period
106.39 mins
BSTAR
0.000050291
Loading maneuver chart data...
Computing Atmospheric mass density...

Documentation

Showing up to 5 results
|